Location: Acheville
(50.3840°N, 2.8827°E)
Time: 23:54:46
(UTC+00:00)

FENGYUN 1C DEB - Pass Details

Date: 05 February 2023
Orbit: 634 x 940 km, 98.3° (Epoch: 28 March)

Event Time Altitude Azimuth Distance (km) Brightness Sun altitude
Rises 18:52:42 0° 214° (SW) 3,224 ? -20.1°
Reaches altitude 10° 18:56:11 10° 239° (WSW) 2,236 ? -20.6°
Maximum altitude 18:58:44 14° 271° (W) 1,927 ? -21.0°
Drops below altitude 10° 19:01:12 10° 303° (WNW) 2,155 ? -21.4°
Sets 19:04:28 0° 329° (NNW) 3,026 ? -22.0°
